[[{"header":{"parameterUnit":"m.s-1","parameterCategory":1,"la1":30.2992,"la2":30.254,"lo1":-89.0895,"lo2":-89.0443,"dy":0.0025,"dx":0.0025,"nx":19,"ny":19,"refTime":"2026-05-23T09:00:00:Z","depth":0,"parameterNumber":2,"parameterNumberName":"U-component_of_WINDS"},"data":[0,0,0,-4.0359,-4.036,-4.0379,-4.0379,-4.0433,-4.0434,0,0,0,0,0,0,0,0,0,0,0,-4.0369,-4.037,-4.0359,-4.036,-4.0379,-4.0379,-4.0433,-4.0434,0,0,0,0,0,0,0,0,0,0,0,-4.0369,-4.037,-4.0371,-4.036,-4.0379,-4.0379,-4.0433,-4.0408,0,0,0,0,0,0,0,0,0,0,-4.0384,-4.0409,-4.037,-4.0371,-4.036,-4.0379,-4.0379,-4.0406,-4.0409,-4.0436,0,-4.0463,0,-4.045,-4.0439,-4.0439,0,0,0,-4.0347,-4.0407,-4.0397,-4.0371,-4.036,-4.0379,-4.0367,-4.0408,-4.0411,-4.0441,-4.0464,-4.0465,-4.0451,-4.044,-4.044,-4.0634,-4.0636,0,0,-4.0346,-4.0382,-4.0395,-4.0401,-4.0399,-4.0367,-4.0368,-4.0409,-4.0437,-4.0464,-4.0466,-4.0452,-4.044,-4.0441,-4.0633,-4.0634,0,0,0,-4.0352,-4.0381,-4.037,-4.0399,-4.0401,-4.0367,-4.0369,-4.0435,-4.0429,-4.0466,-4.0452,-4.0441,-4.0442,-4.0631,-4.0633,-4.0739,0,0,0,-4.035,-4.0384,-4.0371,-4.0392,-4.04,-4.0418,-4.0395,-4.0426,-4.043,-4.0452,-4.0441,-4.0442,-4.0629,-4.0632,-4.0733,-4.0783,0,0,0,-4.0363,-4.0385,-4.0394,-4.0394,-4.0404,-4.0416,-4.0412,-4.0426,-4.0422,-4.0439,-4.0443,-4.0628,-4.0632,-4.0727,-4.0773,-4.0843,0,0,0,-4.0385,-4.0488,-4.0396,-4.0506,-4.0404,-4.0483,-4.0411,-4.0468,-4.0496,-4.0441,-4.0629,-4.0633,-4.0725,-4.0767,-4.0837,-4.0907,-4.094,0,0,-4.0534,-4.0507,-4.0569,-4.0487,-4.0591,-4.0477,-4.0597,-4.0589,-4.0559,-4.0611,-4.0615,-4.0735,-4.0772,-4.0842,-4.1116,-4.1143,0,0,0,-4.0627,-4.0672,-4.0692,-4.072,-4.0718,-4.072,-4.0691,-4.0688,-4.0731,-4.0593,-4.0779,-4.0801,-4.084,-4.0872,-4.0894,-4.0925,-4.065,-4.0649,-4.0649,-4.0885,-4.0843,-4.0942,-4.0902,-4.0932,-4.0902,-4.0921,-4.0913,-4.086,-4.0906,-4.092,-4.1092,-4.113,-4.1147,-4.118,-4.0955,-4.0956,-4.0956,-4.0956,-4.1098,-4.1153,-4.1084,-4.1155,-4.111,-4.1169,-4.1146,-4.1108,-4.1157,-4.1077,-4.1109,-4.1024,-4.1177,-4.1204,-4.0964,-4.0963,-4.0962,-4.0961,-4.096,-4.1259,-4.1279,-4.1276,-4.1314,-4.1349,-4.1307,-4.1358,-4.1315,-4.1275,-4.1308,-4.1318,-4.1316,-4.1307,-4.1316,-4.1317,-4.1317,-4.1318,-4.1318,-4.1319,-4.1427,-4.1421,-4.1468,-4.1477,-4.1491,-4.1504,-4.1479,-4.1491,-4.1494,-4.1459,-4.1459,-4.1402,-4.1201,-4.115,-4.1328,-4.1326,-4.1325,-4.1324,-4.1323,-4.1653,-4.1596,-4.167,-4.1685,-4.1692,-4.1731,-4.1678,-4.1708,-4.1713,-4.1739,-4.1677,-4.1536,-4.1505,-4.1486,-4.1444,-4.1687,-4.1687,-4.1687,-4.1687,-4.1788,-4.177,-4.1836,-4.1862,-4.1883,-4.1844,-4.193,-4.1913,-4.1885,-4.1886,-4.1846,-4.1787,-4.177,-4.1748,-4.1724,-4.1684,-4.1983,-4.1983,-4.1983,-4.1924,-4.1906,-4.1987,-4.196,-4.1964,-4.1969,-4.2049,-4.2082,-4.204,-4.1994,-4.1885,-4.1873,-4.1777,-4.1748,-4.1696,-4.166,-4.1585,0,0]},{"header":{"parameterUnit":"m.s-1","parameterCategory":1,"la1":30.2992,"la2":30.254,"lo1":-89.0895,"lo2":-89.0443,"dy":0.0025,"dx":0.0025,"nx":19,"ny":19,"refTime":"2026-05-23T09:00:00:Z","depth":0,"parameterNumber":3,"parameterNumberName":"V-component_of_WINDS"},"data":[0,0,0,2.64,2.6402,2.6533,2.6533,2.6679,2.668,0,0,0,0,0,0,0,0,0,0,0,2.635,2.635,2.64,2.6403,2.6533,2.6533,2.6679,2.668,0,0,0,0,0,0,0,0,0,0,0,2.635,2.635,2.6351,2.6403,2.6532,2.6533,2.6679,2.6588,0,0,0,0,0,0,0,0,0,0,2.6465,2.6408,2.635,2.6351,2.6404,2.6532,2.6533,2.6584,2.6593,2.6612,0,2.6626,0,2.6655,2.6689,2.6689,0,0,0,2.6411,2.6399,2.6445,2.6351,2.6405,2.6532,2.6476,2.6589,2.66,2.6625,2.6628,2.6634,2.6658,2.669,2.669,2.677,2.677,0,0,2.6404,2.6367,2.6437,2.6451,2.6431,2.6472,2.648,2.6596,2.6597,2.6629,2.6638,2.666,2.6691,2.6692,2.677,2.677,0,0,0,2.6378,2.6361,2.6405,2.6445,2.647,2.6476,2.6485,2.6592,2.6609,2.664,2.6662,2.6691,2.6693,2.677,2.677,2.6732,0,0,0,2.6374,2.6346,2.6401,2.638,2.6467,2.6533,2.6478,2.6601,2.6616,2.6661,2.6691,2.6694,2.677,2.677,2.6734,2.6721,0,0,0,2.6345,2.6343,2.6358,2.6377,2.6432,2.6532,2.6556,2.6605,2.6629,2.6689,2.6694,2.677,2.677,2.6735,2.6723,2.6731,0,0,0,2.6304,2.6323,2.6357,2.6386,2.6431,2.6508,2.6556,2.6615,2.6662,2.6692,2.677,2.677,2.6735,2.6724,2.6732,2.6732,2.6728,0,0,2.6307,2.6322,2.6342,2.6376,2.6438,2.6491,2.6547,2.6626,2.6665,2.6732,2.6735,2.6733,2.6723,2.6731,2.672,2.6716,0,0,0,2.633,2.6344,2.6369,2.6413,2.6473,2.6524,2.6598,2.6627,2.6686,2.6692,2.674,2.6735,2.6741,2.6743,2.674,2.6748,2.6769,2.6769,2.6769,2.6281,2.6331,2.6368,2.6433,2.6474,2.655,2.6588,2.664,2.6678,2.6688,2.6709,2.6696,2.6696,2.6694,2.6702,2.6712,2.6712,2.6712,2.6712,2.629,2.6318,2.6368,2.6421,2.6473,2.6518,2.6591,2.6617,2.6666,2.6684,2.6693,2.6708,2.6689,2.6698,2.671,2.671,2.671,2.6711,2.6711,2.6264,2.6286,2.6321,2.6389,2.6435,2.65,2.6545,2.6591,2.6635,2.6642,2.6669,2.667,2.6676,2.6652,2.6652,2.6652,2.6652,2.6652,2.6652,2.6222,2.6263,2.6296,2.6361,2.6395,2.6445,2.6521,2.6555,2.6605,2.6635,2.6636,2.6672,2.6678,2.6678,2.6651,2.6651,2.6651,2.6651,2.6651,2.6213,2.6222,2.6273,2.6306,2.6387,2.643,2.6488,2.6554,2.6589,2.6609,2.6644,2.6641,2.6659,2.6662,2.6663,2.6633,2.6633,2.6633,2.6633,2.6191,2.6205,2.6266,2.6317,2.6372,2.6429,2.6484,2.6543,2.6605,2.663,2.664,2.6645,2.6646,2.6664,2.6667,2.6668,2.6641,2.6641,2.6641,2.6188,2.6209,2.6247,2.6308,2.6374,2.6429,2.6482,2.6538,2.6611,2.6642,2.665,2.665,2.6658,2.6658,2.6689,2.6692,2.6696,0,0]}]]